This is the latest recevied weather packets stored in our database for station/object W2MMD-13. If no packets are shown the sender has not sent any weather packets the latest 10 day(s).
| Time | Temp. | Humidity | Pressure | Rain* | Wind** | Luminosity | Snow |
|---|---|---|---|---|---|---|---|
| 1777959519 | 15° C | 79% | - | 0 mm | - | - | - |
| 1777958919 | 15.56° C | 78% | - | 0 mm | - | - | - |
| 1777958320 | 15.56° C | 77% | - | 0 mm | - | - | - |
| 1777957720 | 16.11° C | 75% | - | 0 mm | - | - | - |
| 1777957120 | 16.11° C | 75% | - | 0 mm | - | - | - |
| 1777956520 | 16.11° C | 75% | - | 0 mm | - | - | - |
| 1777955920 | 16.11° C | 73% | - | 0 mm | - | - | - |
| 1777955320 | 16.11° C | 73% | - | 0 mm | - | - | - |
| 1777954720 | 16.11° C | 74% | - | 0 mm | - | - | - |
| 1777954120 | 15.56° C | 73% | - | 0 mm | - | - | - |
| 1777953520 | 16.11° C | 73% | - | 0 mm | - | - | - |
| 1777952920 | 16.11° C | 73% | - | 0 mm | - | - | - |
| 1777952320 | 16.11° C | 73% | - | 0 mm | - | - | - |
| 1777951720 | 16.11° C | 73% | - | 0 mm | - | - | - |
| 1777951133 | 16.11° C | 73% | - | 0 mm | - | - | - |
| 1777951120 | 16.11° C | 73% | - | 0 mm | - | - | - |
| 1777950520 | 16.11° C | 72% | - | 0 mm | - | - | - |
| 1777949920 | 16.11° C | 71% | - | 0 mm | - | - | - |
| 1777949320 | 16.11° C | 69% | - | 0 mm | - | - | - |
| 1777948720 | 16.67° C | 68% | - | 0 mm | - | - | - |
| 1777948120 | 16.11° C | 67% | - | 0 mm | - | - | - |
| 1777947519 | 16.67° C | 65% | - | 0 mm | - | - | - |
| 1777946930 | 16.67° C | 62% | - | 0 mm | - | - | - |
| 1777946920 | 16.67° C | 62% | - | 0 mm | - | - | - |
| 1777946331 | 16.67° C | 58% | - | 0 mm | - | - | - |
* Rain latest hour (hover to see other rain measurements)
** Current wind speed in m/s (hover to see current wind gust speed)